CAPE
366 1253 1303 1069 785 581 314 126 155 146 374 688 449 326 165 11 0 0 0 0 0 0 0 0 0 0 0 0 0 0 0 0 0 0 0 0 0 0 0 0 0 0 0
424 1160 1185 986 897 504 349 37 15 127 482 393 226 127 1 0 0 0 0 0 0 0 0 0 0 0 0 0 0 0 0 0 0 0 0 0 0 0 0 0 0 0 0
992 768 527 692 877 645 368 64 42 1 444 315 105 13 0 0 0 0 0 0 0 0 0 0 0 0 0 0 0 0 0 0 0 0 0 0 0 0 0 0 0 0 0
714 401 456 533 778 633 461 222 171 115 292 174 20 0 0 0 0 0 0 0 0 0 0 0 0 0 0 0 0 0 0 0 0 0 0 0 0 0 0 0 0 0 0
728 391 106 232 98 609 498 264 182 476 343 106 7 0 0 0 0 0 0 0 0 0 0 0 0 0 0 0 0 0 0 0 0 0 0 0 0 0 0 0 0 0 0
83 574 314 100 221 388 434 326 231 364 265 69 0 0 0 0 0 0 0 0 0 0 0 0 0 0 0 0 0 0 0 0 0 0 0 0 0 0 0 0 0 0 0
24 421 290 165 212 381 386 340 291 331 201 48 0 0 0 0 0 0 0 0 0 0 0 0 0 0 0 0 0 0 0 0 0 0 0 0 0 0 0 0 0 0 0
0 55 261 11 0 127 293 236 279 216 111 31 0 0 0 0 0 0 0 0 0 0 0 0 0 0 0 0 0 0 0 0 0 0 0 0 0 0 0 0 0 0 0
0 0 147 0 0 14 301 231 305 191 19 0 0 0 0 0 0 0 0 0 0 0 0 0 0 0 0 0 0 0 0 0 0 0 0 0 0 0 0 0 0 0 0
0 5 170 3 0 61 393 189 347 153 5 0 0 0 0 0 0 0 0 0 0 0 0 0 0 0 0 0 0 0 0 0 0 0 0 0 0 0 0 0 0 0 0
0 5 60 364 538 402 497 335 306 100 0 0 0 0 0 0 0 0 0 0 0 0 0 0 0 0 0 0 0 0 0 0 0 0 0 0 0 0 0 0 0 0 0
0 0 42 573 504 310 458 327 148 7 0 0 0 0 0 0 0 0 0 0 0 0 0 0 0 0 0 0 0 0 0 0 0 0 0 0 0 0 0 0 0 0 0
0 4 137 592 383 262 302 246 68 11 1 1 0 0 0 0 0 0 0 0 0 0 0 0 0 0 0 0 0 0 0 0 0 0 0 0 0 0 0 0 0 0 0
13 177 316 443 241 140 138 103 16 6 1 1 1 0 0 0 0 0 0 0 0 0 0 0 0 0 0 0 0 0 0 0 0 0 0 0 0 0 0 0 0 0 0
14 162 482 242 143 68 23 29 2 0 0 0 0 0 0 0 0 0 0 0 0 0 0 0 0 0 0 0 0 0 0 0 0 0 0 0 0 0 0 0 0 0 0
77 310 249 137 87 11 0 0 0 0 0 0 0 0 0 0 0 0 0 0 0 0 0 0 0 0 0 0 0 0 0 0 0 0 0 0 0 0 0 0 0 0 0
340 238 40 32 0 0 0 0 0 0 1 0 0 0 0 0 0 0 0 0 0 0 0 0 0 0 0 0 0 0 0 0 0 0 0 0 0 0 0 0 0 0 0
253 21 11 1 0 0 0 0 0 0 0 0 0 0 0 0 0 0 0 0 0 0 0 0 0 0 0 0 0 0 0 0 0 0 0 0 0 0 0 0 0 0 0
17 0 1 0 0 0 0 0 1 0 0 0 0 0 0 0 0 0 0 0 0 0 0 0 0 0 0 0 0 0 0 0 0 0 0 0 0 0 0 0 0 0 0
1 0 0 0 0 1 1 1 2 1 1 0 0 0 0 0 0 0 0 0 0 0 0 0 0 0 0 0 0 0 0 0 0 0 0 0 0 0 0 0 0 0 0
0 1 0 0 0 0 0 0 1 0 0 0 0 0 0 0 0 0 0 0 0 0 0 0 0 0 0 0 0 0 0 0 0 0 0 0 0 0 0 0 0 0 0
2 0 1 1 0 0 0 0 0 0 0 0 0 0 0 0 0 0 0 0 0 0 0 0 0 0 0 0 0 0 0 0 0 0 0 0 0 0 0 0 0 0 0
1 0 1 0 0 0 0 0 0 0 0 0 0 0 0 0 0 0 0 0 0 0 0 0 0 0 0 0 0 0 0 0 0 0 0 0 0 0 0 0 0 0 0
0 0 0 0 0 0 0 0 0 0 0 0 0 0 0 0 0 0 0 0 0 0 0 0 0 0 0 0 0 0 0 0 0 0 0 0 0 0 0 0 0 0 0
1 2 1 0 0 0 0 0 0 0 0 0 0 0 0 0 0 0 0 0 0 0 0 0 0 0 0 0 0 0 0 0 0 0 0 0 0 0 0 0 0 0 0
0 0 1 2 0 0 0 0 0 0 0 0 0 0 0 0 0 0 0 0 0 0 0 0 0 0 0 0 0 0 0 0 0 0 0 0 0 0 0 0 0 0 0
CIN
-165 -91 -61 -39 -88 -75 -65 -123 -62 -8 -5 -4 -62 -94 -132 -258 0 0 0 0 0 0 0 0 0 0 0 0 0 0 0 0 0 0 0 0 0 0 0 0 0 0 0
-93 -69 -71 -26 -58 -47 -61 -197 -75 -14 -13 -35 -88 -129 -202 0 0 0 0 0 0 0 0 0 0 0 0 0 0 0 0 0 0 0 0 0 0 0 0 0 0 0 0
-60 -100 -160 -110 -42 -42 -48 -115 -87 -42 -11 -27 -100 -190 0 0 0 0 0 0 0 0 0 0 0 0 0 0 0 0 0 0 0 0 0 0 0 0 0 0 0 0 0
-98 -121 -178 -150 -44 -47 -48 -25 -8 -39 -9 -46 -127 0 0 0 0 0 0 0 0 0 0 0 0 0 0 0 0 0 0 0 0 0 0 0 0 0 0 0 0 0 0
-15 -51 -232 -263 -374 -35 -57 -80 -32 -1 -13 -89 -173 0 0 0 0 0 0 0 0 0 0 0 0 0 0 0 0 0 0 0 0 0 0 0 0 0 0 0 0 0 0
-164 -27 -117 -319 -254 -146 -50 -50 -58 -2 -34 -150 0 0 0 0 0 0 0 0 0 0 0 0 0 0 0 0 0 0 0 0 0 0 0 0 0 0 0 0 0 0 0
-201 -43 -135 -287 -235 -160 -36 -73 -45 -40 -114 -173 0 0 0 0 0 0 0 0 0 0 0 0 0 0 0 0 0 0 0 0 0 0 0 0 0 0 0 0 0 0 0
0 -192 -104 -213 0 -301 -58 -26 -83 -98 -139 -268 0 0 0 0 0 0 0 0 0 0 0 0 0 0 0 0 0 0 0 0 0 0 0 0 0 0 0 0 0 0 0
0 0 -154 0 0 -508 -111 -32 -49 -109 -155 0 0 0 0 0 0 0 0 0 0 0 0 0 0 0 0 0 0 0 0 0 0 0 0 0 0 0 0 0 0 0 0
0 -257 -79 -21 0 -354 -138 -20 -37 -90 -41 0 0 0 0 0 0 0 0 0 0 0 0 0 0 0 0 0 0 0 0 0 0 0 0 0 0 0 0 0 0 0 0
0 -129 -120 -20 -23 -58 -42 -59 -31 -77 0 0 0 0 0 0 0 0 0 0 0 0 0 0 0 0 0 0 0 0 0 0 0 0 0 0 0 0 0 0 0 0 0
0 -32 -181 -22 -45 -103 -85 -66 -99 -73 0 0 0 0 0 0 0 0 0 0 0 0 0 0 0 0 0 0 0 0 0 0 0 0 0 0 0 0 0 0 0 0 0
0 -71 -107 -30 -27 -66 -83 -85 -74 -132 0 0 0 0 -1 0 0 0 0 0 0 0 0 0 0 0 0 0 0 0 0 0 0 0 0 0 0 0 0 0 0 0 0
-169 -47 -20 -16 -29 -85 -52 -117 -123 -69 0 0 0 0 0 0 0 0 0 0 0 0 0 0 0 0 0 0 0 0 0 0 0 0 0 0 0 0 0 0 0 0 0
-229 -93 -3 -21 -49 -73 -67 -134 -71 0 0 0 0 0 0 0 0 0 0 0 0 0 0 0 0 0 0 0 0 0 0 0 0 0 0 0 0 0 0 0 0 0 0
-139 -21 -48 -85 -67 -59 0 0 0 0 0 0 0 0 0 0 0 0 0 0 0 0 0 0 0 0 0 0 0 0 0 0 0 0 0 0 0 0 0 0 0 0 0
-7 -31 -105 -85 -5 0 0 0 0 0 0 0 0 0 0 0 0 0 0 0 0 0 0 0 0 0 0 0 0 0 0 0 0 0 0 0 0 0 0 0 0 0 0
-16 -171 -131 0 0 0 0 0 0 0 0 0 0 0 0 0 0 0 0 0 0 0 0 0 0 0 0 0 0 0 0 0 0 0 0 0 0 0 0 0 0 0 0
-157 0 0 0 0 0 0 0 0 0 0 0 0 0 0 0 0 0 0 0 0 0 0 0 0 0 0 0 0 0 0 0 0 0 0 0 0 0 0 0 0 0 0
0 0 0 0 0 0 0 0 0 0 0 0 0 0 0 0 0 0 0 0 0 0 0 0 0 0 0 0 0 0 0 0 0 0 0 0 0 0 0 0 0 0 0
0 0 0 -1 0 0 0 0 0 0 -1 0 0 0 0 0 0 0 0 0 0 0 0 0 0 0 0 0 0 0 0 0 0 0 0 0 0 0 0 0 0 0 0
0 0 0 0 0 0 0 0 0 0 0 0 0 0 0 0 0 0 0 0 0 0 0 0 0 0 0 0 0 0 0 0 0 0 0 0 0 0 0 0 0 0 0
0 0 0 0 0 0 0 0 0 0 0 0 0 0 0 0 0 0 0 0 0 0 0 0 0 0 0 0 0 0 0 0 0 0 0 0 0 0 0 0 0 0 0
0 0 0 0 0 0 0 0 0 0 0 0 0 0 0 0 0 0 0 0 0 0 0 0 0 0 0 0 0 0 0 0 0 0 0 0 0 0 0 0 0 0 0
0 0 0 0 0 0 0 0 0 0 0 0 0 0 0 0 0 0 0 0 0 0 0 0 0 0 0 0 0 0 0 0 0 0 0 0 0 0 0 0 0 0 0
0 0 0 0 -1 0 0 0 0 0 0 0 0 0 0 0 0 0 0 0 0 0 0 0 0 0 0 0 0 0 0 0 0 0 0 0 0 0 0 0 0 0 0
Wind_Speed
7 8 11 9 8 11 13 17 14 12 19 15 11 11 12 12 12 10 9 9 8 7 6 7 7 7 4 4 4 4 4 4 5 2 1 1 3 3 5 5 8 7 7
7 6 7 8 6 11 15 15 13 12 15 13 12 11 11 11 10 13 12 10 10 9 7 7 8 6 7 6 3 5 4 4 4 4 1 1 4 3 3 5 5 7 5
5 6 6 6 7 12 15 16 14 12 13 14 16 15 14 13 11 12 12 10 9 9 8 7 8 7 5 5 3 5 3 2 3 4 3 2 2 3 5 5 4 5 5
3 4 5 6 8 12 17 21 13 13 13 14 12 12 11 13 14 14 13 11 10 9 7 7 7 7 7 7 5 5 3 2 4 6 3 3 3 2 4 3 3 3 3
6 6 3 5 4 6 15 19 19 13 16 14 14 11 11 10 10 13 14 12 11 9 9 9 7 9 11 7 5 4 6 4 7 5 4 3 3 4 3 2 1 2 2
13 8 7 3 4 8 11 19 17 16 14 14 13 13 13 9 13 14 14 12 11 13 11 9 7 12 12 14 12 9 7 7 6 5 3 4 1 1 2 2 2 3 3
11 10 7 5 1 2 9 14 16 16 16 16 15 15 13 8 14 16 16 11 11 11 11 10 9 7 9 8 11 14 14 12 8 8 7 3 3 1 2 4 3 3 2
11 12 8 5 5 4 9 13 15 14 15 14 12 12 15 8 21 18 17 12 11 9 11 8 11 8 8 9 8 9 7 7 7 7 7 5 4 2 2 1 3 4 2
10 10 10 8 9 7 9 13 10 13 13 14 14 14 11 10 21 20 16 12 12 9 10 10 10 9 9 9 10 9 7 5 6 10 9 6 6 6 5 4 4 5 4
11 11 13 11 12 9 8 14 13 14 14 13 14 14 15 13 7 20 16 10 11 9 7 11 13 10 10 16 10 9 8 6 6 4 4 3 3 5 9 6 4 5 2
10 12 14 13 15 17 20 13 13 13 13 13 13 13 16 17 13 17 17 11 10 9 8 8 6 13 10 14 11 8 7 7 5 5 4 3 2 3 5 4 5 5 3
8 13 14 7 6 8 16 14 15 15 16 14 15 12 12 13 11 13 16 15 12 12 9 6 6 13 12 15 10 12 11 8 4 5 5 4 4 2 2 4 4 5 3
10 12 14 8 9 11 14 15 11 13 12 12 14 14 14 11 4 12 15 18 15 10 8 9 12 12 13 10 12 11 9 4 3 5 5 3 3 3 4 4 3 4 4
11 9 9 10 9 12 10 12 13 14 12 11 12 13 12 12 9 8 10 8 14 11 16 9 8 8 8 7 6 6 3 4 6 6 4 3 2 3 3 3 3 2 4
7 9 9 12 13 11 10 12 13 11 15 17 12 17 18 15 10 10 12 12 11 13 11 8 6 4 5 4 3 4 4 4 5 4 3 4 3 3 2 3 3 3 5
8 6 8 10 10 10 9 6 6 15 15 14 19 17 10 15 19 19 20 18 19 18 9 10 7 5 7 5 5 4 3 5 4 5 4 5 4 4 3 3 4 5 4
8 10 8 10 10 10 9 10 9 11 16 16 19 18 23 26 21 22 22 23 19 12 9 7 8 8 5 5 5 5 4 4 5 5 4 5 5 4 5 3 4 5 3
12 13 9 10 10 10 9 9 10 12 13 9 10 18 21 21 22 24 25 17 7 5 8 8 7 7 5 6 6 5 5 5 4 5 5 4 5 5 4 4 4 5 4
10 11 11 9 9 9 11 11 11 13 13 13 10 10 19 23 24 26 21 13 11 9 6 7 6 6 6 6 8 7 6 5 5 5 4 5 5 5 4 4 5 6 6
10 14 11 11 9 10 11 13 12 14 14 13 13 14 13 14 15 16 10 9 10 8 5 8 6 5 6 9 8 7 5 5 5 4 5 4 5 5 5 4 4 5 3
8 10 11 10 12 9 12 13 13 14 13 12 11 11 14 15 14 12 9 9 9 8 6 7 6 6 6 7 8 8 7 5 6 6 5 4 5 5 5 5 5 5 5
9 9 9 10 9 10 9 11 12 13 15 14 13 9 10 9 11 9 9 9 7 5 7 8 7 7 8 8 8 7 7 6 5 6 5 5 5 5 5 4 5 4 4
9 9 8 8 9 10 9 10 10 10 11 12 15 14 12 10 9 7 9 6 5 7 8 8 8 6 5 6 6 7 7 6 6 6 6 5 5 5 5 5 5 4 3
9 10 9 8 8 9 10 10 9 12 13 14 14 13 11 10 9 5 6 5 7 6 7 8 7 8 6 5 5 5 6 6 6 6 8 6 5 5 6 6 5 5 4
7 9 9 9 9 9 10 11 11 13 12 14 14 12 11 10 9 5 6 8 8 7 7 7 6 9 10 12 11 11 9 12 9 7 6 7 7 8 7 5 4 3 3
7 8 8 9 8 9 10 11 11 12 14 13 12 12 11 11 10 8 7 7 8 8 8 6 11 15 15 12 13 10 13 12 10 8 6 6 6 5 5 6 8 5 5
Wind_Direction
287 261 240 223 195 181 172 173 172 185 190 181 173 169 157 152 152 139 134 139 128 124 109 119 106 105 112 90 80 97 88 91 114 347 118 150 50 34 358 17 138 124 133
286 299 261 230 179 181 169 170 180 195 159 166 166 166 157 150 150 140 147 142 142 133 130 121 117 109 116 106 109 117 109 112 129 129 97 35 57 12 30 43 101 125 151
319 302 283 265 183 186 167 172 189 191 168 171 169 164 162 159 150 142 140 133 137 136 136 135 130 124 111 97 130 111 126 125 115 108 107 45 35 25 24 36 69 126 148
337 348 324 259 220 201 172 175 193 193 165 166 169 156 167 162 155 144 138 139 143 131 134 131 127 131 129 131 128 135 120 95 84 108 91 68 55 340 63 64 15 33 123
298 304 297 317 299 228 185 179 174 200 163 169 144 153 156 157 151 149 140 150 138 117 107 101 96 106 106 125 112 107 98 84 97 106 89 66 29 26 34 309 177 281 10
310 269 270 118 296 248 188 179 172 185 159 147 144 148 144 149 153 136 146 142 133 123 117 111 107 96 91 98 101 98 117 122 109 109 114 98 50 57 0 310 344 43 0
300 277 261 279 99 265 204 165 161 165 156 159 150 146 142 135 152 135 130 132 123 125 128 130 121 117 111 111 98 85 80 82 103 125 116 141 107 40 337 354 52 100 129
282 297 238 219 258 211 224 194 159 152 157 149 150 158 142 145 140 133 120 121 121 130 139 129 127 140 135 131 110 93 91 95 105 109 115 134 129 107 44 234 182 123 71
277 276 264 190 241 197 225 218 166 160 156 155 152 139 132 140 137 134 129 131 135 142 142 132 141 136 141 139 120 110 105 96 104 125 123 120 58 31 39 77 42 79 40
277 275 284 207 234 237 214 201 169 168 165 155 147 142 135 143 135 137 137 142 134 128 115 140 134 140 139 146 136 135 130 172 144 123 97 48 49 29 66 82 95 75 92
274 279 278 247 219 205 205 190 164 162 154 151 135 140 139 149 160 144 140 147 141 134 133 131 139 137 132 142 141 148 170 174 167 143 129 135 120 106 92 82 92 115 101
281 284 283 228 175 179 165 166 166 161 151 141 132 136 141 142 151 149 138 132 144 138 140 136 146 131 126 127 133 146 122 113 124 108 117 131 142 153 152 135 123 104 106
257 260 266 174 171 170 161 152 159 161 152 146 147 145 145 144 124 151 140 141 137 130 130 139 143 126 117 108 129 117 107 98 103 121 127 151 158 160 158 117 95 92 65
258 269 260 169 177 172 176 153 162 160 146 143 148 136 157 148 167 157 146 131 119 116 124 135 141 123 127 130 105 102 134 180 152 138 160 174 119 87 95 141 142 147 91
255 272 221 178 177 161 163 165 164 167 163 154 157 156 161 161 171 145 147 146 144 135 132 135 126 123 127 126 122 138 123 116 116 123 132 133 131 112 92 89 98 92 94
252 227 194 166 163 160 146 139 78 140 125 131 145 156 139 129 144 135 131 131 130 143 145 147 140 139 148 149 150 139 125 124 120 109 115 112 120 122 119 81 102 105 105
216 176 156 160 156 145 151 155 123 75 105 136 133 139 146 145 134 129 129 134 141 136 148 150 145 152 161 169 155 143 130 144 127 116 125 119 121 109 104 101 117 116 96
174 156 164 157 144 149 152 138 132 136 130 134 118 131 129 124 129 134 132 128 137 132 149 150 154 169 172 159 147 131 128 117 114 122 115 125 119 119 103 97 106 125 127
159 163 161 148 143 152 150 137 142 135 139 141 127 116 129 131 138 147 161 160 157 155 156 160 168 172 167 142 140 141 136 130 129 125 118 118 136 122 120 126 116 120 132
161 155 148 148 144 155 151 144 143 141 144 147 151 153 149 137 157 166 167 165 158 155 152 164 156 150 141 143 143 133 120 126 125 126 122 123 136 143 138 139 137 134 143
137 145 146 151 148 160 158 150 148 145 148 149 146 150 159 164 161 163 158 165 159 154 152 150 142 135 139 133 131 127 127 129 131 131 131 119 126 128 138 131 130 132 137
136 140 150 149 148 146 162 147 152 153 151 142 135 137 138 152 163 158 161 164 156 146 149 138 139 142 142 135 138 134 135 137 141 137 146 139 133 129 128 120 103 97 90
128 126 129 133 137 122 126 134 140 134 135 134 138 145 157 161 154 143 153 154 131 138 135 129 131 124 124 134 141 143 136 149 149 141 142 137 140 134 125 122 124 106 93
128 128 129 126 135 134 134 137 128 130 137 136 140 145 148 150 146 129 118 124 125 124 126 129 127 132 136 126 117 123 132 131 128 141 134 128 128 120 118 122 127 130 129
126 131 131 133 130 128 126 127 135 137 141 143 144 139 137 141 144 120 129 147 128 122 122 118 117 120 110 110 104 101 104 95 95 107 120 127 122 128 127 131 137 142 121
106 118 121 133 128 134 130 138 141 146 145 146 139 140 142 147 149 142 145 126 121 112 110 101 106 111 103 103 106 113 99 95 89 91 121 110 105 113 122 127 122 116 125